Location: Waco, TX
(31.5480°N, 97.1670°W)
Time: 03:58:39
(UTC-06:00)

ISS - Pass Details

Date: 22 November 2017
Orbit: 401 x 407 km, 51.6° (Epoch: 18 November)

Event Time Altitude Azimuth Distance (km) Brightness Sun altitude
Rises 20:56:04 0° 257° (WSW) 2,313 - -44.3°
Reaches altitude 10° 20:58:33 10° 276° (W) 1,455 - -44.8°
Maximum altitude 21:00:58 19° 324° (NW) 1,037 - -45.3°
Drops below altitude 10° 21:03:23 10° 12° (NNE) 1,457 - -45.9°
Sets 21:05:53 0° 31° (NNE) 2,318 - -46.4°
